Weather in Larisovka

Russia / Belgorod Oblast     51°02′25″N   38°16′22″E
temp.,
°C
wind,
m/s
gust,
m/s
humid.,
%
clouds,
%
prec.,
mm/h
press.,
hPa
HPBL,
m
21 october, thu
thu2100:00+7ssw81735100 0.0 1021625
03:00+7ssw81952100 0.1 1018636
06:00+8sw91965100 0.0 1016628
09:00+9sw10197788 0.0 1014644
12:00+14sw101759100 0.0 1013804
15:00+16sw101650100 0.0 1012977
18:00+14sw9175465 0.0 1011822
21:00+13sw9186199 0.0 1010842
22 october, fri
fri2200:00+11sw10186099 0.0 1009749
03:00+10sw9176826 0.0 1008651
06:00+9sw91783100 0.0 1008638
09:00+10sw9167965 0.0 1008607
12:00+15wsw91457100 0.0 10091038
15:00+16wsw71242100 0.0 10101596
18:00+13wsw512439 0.0 1011308
21:00+10sw5145546 0.0 1013325
23 october, sat
sat2300:00+9sw4106377 0.0 1013198
03:00+8sw411715 0.0 1013204
06:00+8sw37688 0.0 1013174
09:00+10ssw4663100 0.0 1013199
12:00+14wsw7114525 0.0 10121300
15:00+14wsw811322 0.0 10121568
18:00+10w5114775 0.0 1014298
21:00+7w511605 0.0 1016404
24 october, sun
sun2400:00+5w511730 0.0 1017388
03:00+3w411815 0.0 1017313
06:00+2wsw49905 0.0 1018203
09:00+4wsw5107465 0.0 1018402
12:00+7w61054100 0.0 10181205
15:00+8w7956100 0.2 10171501
18:00+5wnw6974100 0.2 1018822
21:00+3nw4897100 0.7 1019487
25 october, mon
mon2500:00+2nnw5896100 0.4 1019698
03:00+2nnw6109499 0.5 1021620
06:00+2n7107762 0.1 1024948
09:00+2n796789 0.1 10271013
12:00+3n7856100 0.0 10291237
15:00+4n684595 0.0 10301442
18:00+1n36575 0.0 1033104
21:00−1n336445 0.0 103437